Regional Weather Roundup
Issued by NWS Green Bay, WI

Home | Current Version | Previous Version | Text Only | Print | Product List | Glossary On
Versions: 1 2 3 4 5 6 7 8 9 10 11 12 13 14 15 16 17 18 19 20 21 22 23 24 25 26 27 28 29 30 31 32 33 34 35 36 37 38 39 40 41 42 43 44 45 46 47 48 49 50
359
ASUS43 KGRB 080211
RWRGRB

NORTH-CENTRAL AND NORTHEAST WISCONSIN REGIONAL WEATHER ROUNDUP
NATIONAL WEATHER SERVICE GREEN BAY WI
800 PM CST SUN FEB 07 2016

WIZ005-009-010>012-018-019-080300-
NORTH CENTRAL WISCONSIN

CITY           SKY/WX    TMP DP  RH WIND       PRES   REMARKS
IRONWOOD       CLOUDY    32  32 100 W9        29.48F
MANITOWISH WTR LGT SNOW  31  31 100 SW6       29.50F
ARBOR VITAE    LGT SNOW  33  31  93 SW3       29.51F
EAGLE RIVER    FLURRIES  32  31  95 SW8       29.51S
LAND O LAKES   LGT SNOW  32  32  99 CALM      29.51F
RHINELANDER    CLOUDY    32  27  81 W10       29.53F
PHILLIPS       LGT SNOW  32  31  99 SW6       29.52F
ANTIGO         MOCLDY    33  27  79 SW9       29.55F
TOMAHAWK       LGT RAIN  32  28  83 CALM      29.55S
MERRILL        CLOUDY    35  28  76 W7        29.56S
$$

WIZ013-073-080300-
NORTHEAST WISCONSIN

CITY           SKY/WX    TMP DP  RH WIND       PRES   REMARKS
IRON MOUNTAIN  CLOUDY    34  30  85 S6        29.53F
MARINETTE      CLOUDY    37  28  70 SW7       29.58F
OCONTO         CLOUDY    37  30  78 S5        29.59S
$$

WIZ017-030-035>037-045-080300-
CENTRAL WISCONSIN

CITY           SKY/WX    TMP DP  RH WIND       PRES   REMARKS
MEDFORD        FLURRIES  33  28  83 SW7       29.55S
WAUSAU         CLOUDY    37  26  64 SW8       29.55F
MOSINEE        NOT AVBL
MARSHFIELD     CLOUDY    36  26  67 W12       29.57F
WISC RAPIDS    CLOUDY    36  24  62 SW7       29.61F
STEVENS POINT  CLOUDY    34  25  67 SW7       29.59F
WAUPACA        CLOUDY    38  28  65 SW8       29.61F
SHAWANO        CLOUDY    40  28  64 W7        29.59S
CLINTONVILLE   CLOUDY    37  27  65 W8        29.60F
WAUTOMA        CLOUDY    37  26  65 SW8       29.63F
$$

WIZ038-039-048-051-080300-
FOX VALLEY

CITY           SKY/WX    TMP DP  RH WIND       PRES   REMARKS
NWS GREEN BAY  CLOUDY    37  29  72 SW6       29.61S
APPLETON       CLOUDY    36  27  69 S8        29.60S
OSHKOSH        CLOUDY    36  26  67 VRB5      29.63S
FOND DU LAC    MOCLDY    34  26  72 SW7       29.64F
$$

WIZ022-050-052-080300-
EAST CENTRAL WISCONSIN

CITY           SKY/WX    TMP DP  RH WIND       PRES   REMARKS
EPHRAIM        CLOUDY    36  30  78 CALM      29.58F
STURGEON BAY   CLOUDY    36  28  75 S9        29.62S
MANITOWOC      CLOUDY    39  29  67 SW10      29.63S
SHEBOYGAN      CLOUDY    35  28  75 SW9       29.65S
$$

LMZ563-521-522-541>543-080300-
LAKESHORE

STATION/POSITION TIME  TEMP    WIND        PRES    VSBY  WAVE
                       AIR SEA DIR/SP/G                  HT/PER
                 (UTC) (F)     (DEG/KT/KT) (MB)    (MI)  (FT/S)
SHEBOYGAN LKSHOR 0200   37     230/  9/ 11 1004.7S
KEWAUNEE LKSHORE 0100   38                 1002.4F
NORTHPORT PIER   0100   37      CALM  /  3 1002.4F
CHAMBERS ISLAND  0100   37     190/  5/ 12 1002.7F
MENOMINEE LKSHOR 0100   38                 1001.3F
$$




USA.gov is the U.S. government's official web portal to all federal, state and local government web resources and services.